Tracking 20715 objects as of 27-May-2020
HD Live streaming from Space Station
objects crossing your sky now

SL-14 DEB

Track SL-14 DEB now!
10-day predictions


NORAD ID: 25999
Int'l Code: 1991-068J
Perigee: 1,374.0 km
Apogee: 1,473.5 km
Inclination: 82.7 °
Period: 114.1 minutes
Semi major axis: 7794 km
RCS: 0.0764 m2 (small)
Launch date: September 28, 1991
Source: Commonwealth of Independent States (former USSR) (CIS)
Launch site: PLESETSK MISSILE AND SPACE COMPLEX (PKMTR)

Note: This is SATELLITE DEBRIS
aabbcc
Your satellite tracking list
Your tracking list is empty




NASA's NSSDC Master Catalog

Two Line Element Set (TLE):
1 25999U 91068J   20147.71969338  .00000122  00000-0  62021-3 0  9997
2 25999  82.6993  56.6648 0063823  37.3383 350.8065 12.61527856949447
Source of the keplerian elements: AFSPC